Wind_Speed
8 9 10 10 9 10 9 8 10 11 13 14 14 9 4 4 5 7 7 9 10 12 15 17 18 20 20 20 20 21 21 22 21 21 22 22 23 23 24 24 25 25 25 26
9 11 10 10 8 9 8 9 9 10 12 12 11 9 4 3 5 6 7 8 9 11 12 14 16 17 17 17 19 20 21 20 20 21 22 23 23 23 23 24 24 25 25 26
7 9 11 10 9 10 10 8 9 10 11 11 10 8 6 5 5 6 7 8 8 10 11 11 12 12 13 14 16 18 19 20 20 20 21 21 22 23 23 23 23 23 24 25
7 9 10 9 9 10 11 9 9 10 12 12 10 9 5 5 4 7 7 7 8 9 9 9 9 10 11 13 15 16 16 17 18 19 20 20 21 22 23 23 23 24 24 24
7 9 11 10 10 10 9 9 9 10 13 14 9 8 7 7 5 7 6 6 8 9 8 8 9 10 11 13 14 15 16 17 17 18 19 20 21 22 22 23 24 24 25 25
7 8 8 9 9 8 8 9 11 10 11 10 7 6 8 9 8 8 7 7 8 9 8 9 10 10 12 14 16 17 17 18 18 19 20 21 22 23 23 24 25 25 25 26
10 10 9 10 10 8 8 10 13 14 10 6 6 6 9 9 9 8 9 9 9 9 9 10 11 12 14 16 17 18 18 19 19 20 20 21 22 23 23 24 25 26 26 27
13 14 10 9 11 11 8 8 11 13 13 7 4 5 8 9 9 9 10 10 10 10 11 12 13 14 16 17 18 18 19 20 20 20 21 22 23 23 24 25 25 26 27 28
12 13 11 10 10 10 8 6 7 10 12 8 4 7 7 10 11 11 10 10 11 11 12 13 14 16 17 18 19 19 20 20 21 21 22 22 23 24 25 25 26 27 28 29
11 12 10 10 10 9 7 5 4 5 8 10 6 6 8 10 13 12 12 12 12 13 13 14 16 17 18 19 19 20 20 21 21 22 22 23 23 24 25 25 26 27 28 29
12 12 11 10 8 8 8 6 5 6 6 9 11 9 11 14 15 15 14 14 13 13 14 15 16 17 18 19 20 20 21 21 21 22 23 24 24 25 25 26 26 28 29 30
13 12 13 12 10 10 8 7 7 8 7 6 11 14 15 15 16 16 15 14 13 14 14 16 17 18 19 20 21 21 21 21 22 22 23 24 25 25 26 27 28 29 30 31
13 13 13 13 13 11 6 5 7 8 6 6 9 15 16 16 16 15 15 15 14 14 15 17 18 19 20 20 21 21 22 22 23 24 25 25 26 27 28 29 30 31 31 32
13 13 12 12 10 7 5 6 8 8 7 8 11 14 17 15 15 15 15 15 14 14 15 17 18 19 19 20 21 21 22 23 24 25 26 27 28 29 30 31 31 32 33 33
13 13 12 11 8 7 7 8 10 10 9 10 12 14 18 16 15 16 16 15 15 15 15 16 17 18 19 20 21 22 22 23 25 25 26 28 29 30 31 32 33 34 34 34
15 14 12 10 9 8 8 10 11 11 11 12 13 16 19 16 16 17 16 15 15 15 16 17 17 18 20 21 21 22 23 24 25 26 28 29 31 32 33 33 34 35 35 35
16 14 12 10 10 11 11 11 11 11 13 13 14 17 18 17 16 16 16 16 15 16 16 17 18 19 20 21 22 22 24 25 26 27 29 30 32 33 34 35 35 36 36 37
17 15 14 12 12 12 10 10 11 12 13 15 16 17 18 17 17 16 16 16 16 16 17 18 18 19 20 21 22 23 24 26 27 29 30 31 33 34 35 36 36 37 37 37
17 15 15 14 14 12 12 13 14 13 13 15 16 17 17 17 17 16 15 16 16 16 18 18 19 20 21 22 23 24 26 27 28 30 31 32 34 35 36 37 37 38 38 38
16 14 14 15 15 15 14 15 15 15 16 16 17 17 16 16 17 17 16 16 17 17 18 19 20 21 21 22 24 25 26 28 29 30 32 33 35 36 37 38 39 39 39 38
16 13 15 16 16 16 17 16 16 16 17 17 18 18 17 17 18 18 18 17 18 18 19 20 21 21 22 23 24 25 27 28 29 30 33 35 36 37 38 39 39 40 39 39
16 15 17 17 17 19 21 19 20 20 18 17 19 20 20 19 18 18 18 18 18 19 20 21 21 22 23 24 25 26 28 29 30 32 33 36 37 38 39 40 41 40 40 39
18 18 21 22 21 20 20 22 22 21 19 19 20 21 20 20 19 19 19 19 20 21 21 22 22 23 24 25 26 28 29 31 32 34 35 36 37 38 40 41 41 40 40 40
18 20 22 24 25 24 20 17 20 21 21 20 21 21 21 21 21 21 20 20 21 22 22 23 24 25 26 27 28 29 30 32 33 35 35 37 38 40 41 42 42 41 40 40
23 22 23 23 25 24 20 21 22 23 22 21 21 21 22 22 22 23 23 22 23 23 24 24 25 26 27 28 29 31 32 33 34 35 36 37 39 41 41 41 42 41 40 40
25 25 26 27 26 25 25 24 23 23 22 22 22 23 23 23 24 25 24 24 24 25 25 26 27 28 29 30 31 33 34 35 35 36 38 39 40 41 42 42 42 41 40 40
Wind_Direction
356 348 342 328 309 300 291 281 285 290 294 297 302 321 331 322 295 290 285 283 279 274 274 276 280 282 283 286 289 291 292 293 294 297 299 300 300 299 299 298 297 295 294 292
337 320 320 311 304 302 301 290 280 288 293 296 300 298 305 290 291 295 298 294 292 284 286 282 279 282 286 292 293 294 297 298 298 299 301 301 302 302 301 299 299 297 295 293
304 304 306 306 307 308 304 298 296 295 294 283 282 293 285 283 295 295 302 302 298 295 295 294 292 290 293 301 305 302 303 303 303 304 306 306 305 304 304 304 303 299 296 292
288 286 298 298 300 299 300 297 290 282 281 284 276 293 306 311 295 306 313 312 310 303 304 299 301 303 310 318 322 319 316 313 311 311 312 312 311 309 307 306 304 302 300 297
284 294 297 298 294 296 300 293 287 279 273 277 275 298 304 329 325 325 332 331 324 321 324 326 323 321 323 327 327 328 325 322 319 317 316 315 314 312 311 309 308 306 304 302
271 277 289 295 299 306 309 300 291 287 279 290 299 305 319 337 343 345 346 348 347 344 345 347 346 341 335 332 331 330 328 327 325 322 320 319 317 315 314 313 311 309 307 305
295 280 272 295 303 307 310 307 309 323 328 335 346 326 334 343 346 347 351 350 349 351 350 348 346 342 338 335 333 333 332 330 328 325 322 321 319 317 316 314 313 311 310 308
285 290 279 294 302 303 308 311 313 327 340 342 349 345 352 6 355 345 341 340 340 343 345 346 344 341 338 337 336 335 333 331 329 326 324 323 321 319 318 317 315 313 311 310
270 280 287 297 299 296 293 290 301 313 324 325 337 347 1 1 349 340 334 334 337 340 343 343 342 341 339 339 338 336 335 334 332 330 328 326 324 322 321 319 317 315 314 312
272 276 282 289 303 303 293 286 284 291 315 325 307 306 327 345 340 338 333 333 334 335 339 341 341 340 341 340 338 337 336 336 334 332 330 328 325 324 323 322 320 319 318 316
269 269 268 269 286 288 291 282 259 254 267 306 319 310 318 326 327 329 328 328 328 329 334 336 337 338 339 339 338 337 336 335 334 332 331 330 328 327 326 325 324 323 322 320
264 263 258 251 251 256 266 263 263 257 251 274 297 299 310 314 320 322 321 323 326 328 331 334 335 337 338 338 338 337 336 336 335 334 333 332 331 330 329 328 327 325 323 321
264 263 258 256 247 253 246 256 268 266 251 251 280 291 300 308 314 317 318 320 323 325 327 331 332 335 336 336 336 336 336 336 336 335 334 334 334 333 332 331 329 327 325 323
269 266 258 272 283 299 302 286 278 272 265 269 272 286 295 303 307 311 315 316 316 319 323 327 330 332 333 334 335 335 336 336 336 336 336 336 335 335 334 332 330 328 326 324
269 269 261 259 265 276 285 274 271 270 267 270 281 290 292 297 302 307 311 311 313 316 321 325 327 329 331 333 334 335 335 335 336 336 336 336 336 335 334 333 332 330 328 326
273 271 265 259 258 263 267 264 262 258 261 262 267 275 280 291 297 301 305 307 311 315 320 324 327 329 331 333 334 334 334 335 335 336 336 336 336 336 335 334 333 331 329 327
270 271 264 253 245 248 247 251 257 257 259 262 265 269 280 289 294 298 301 305 309 313 317 322 326 328 330 331 332 333 334 335 335 335 335 335 335 335 335 334 333 331 330 328
269 269 264 253 245 247 250 255 259 263 262 263 267 272 280 288 293 296 300 303 307 311 316 320 324 325 327 329 330 332 333 334 334 335 335 334 334 334 334 334 333 332 331 330
267 266 261 254 248 251 249 246 254 263 265 267 270 274 281 288 293 296 300 303 308 311 315 318 321 323 324 326 327 329 331 332 333 334 335 334 334 333 334 334 334 333 332 331
264 264 260 255 252 252 257 256 254 264 270 271 275 279 282 288 294 298 301 304 306 309 313 315 318 320 322 323 326 327 329 331 332 333 334 334 334 333 334 334 334 334 333 332
259 268 266 260 253 251 253 257 262 261 264 271 275 280 285 289 293 298 301 303 304 306 309 311 314 317 320 322 324 325 327 329 331 332 333 334 333 334 334 334 334 334 333 333
260 269 269 259 247 245 250 253 255 259 265 272 276 280 283 286 290 293 296 299 302 304 306 309 312 314 318 320 321 323 325 327 328 330 331 333 333 334 334 334 334 334 334 333
251 256 260 259 253 247 245 249 256 265 267 272 276 278 283 285 288 291 294 296 299 303 305 307 309 311 315 318 321 323 323 324 326 329 330 331 333 333 334 335 334 333 333 334
251 251 257 263 264 260 252 254 266 272 276 277 276 277 280 284 287 289 291 295 298 301 303 305 306 309 313 315 318 320 321 323 325 328 329 330 332 333 333 334 334 334 334 334
253 257 259 261 264 266 264 264 269 273 274 276 276 277 279 282 284 288 291 294 297 299 302 305 306 308 311 313 316 318 319 320 322 325 326 328 330 331 332 333 334 335 334 334
253 257 259 260 262 265 265 265 267 270 271 274 275 276 278 280 282 285 289 292 295 297 300 304 305 306 308 311 313 315 317 319 321 323 325 327 328 329 331 332 333 334 334 334
Height
5875 5875 5875 5875 5874 5873 5871 5870 5869 5867 5864 5861 5858 5854 5854 5855 5857 5857 5859 5859 5859 5859 5859 5859 5859 5858 5857 5856 5856 5855 5854 5853 5851 5850 5849 5847 5846 5844 5842 5841 5840 5838 5837 5836
5876 5875 5875 5874 5873 5872 5870 5868 5867 5866 5864 5861 5859 5857 5855 5856 5857 5856 5856 5857 5857 5857 5856 5855 5855 5855 5854 5853 5853 5851 5850 5848 5847 5846 5844 5843 5841 5839 5838 5836 5835 5833 5831 5830
5876 5877 5875 5874 5872 5870 5869 5868 5867 5865 5862 5860 5858 5856 5855 5855 5855 5854 5855 5855 5855 5855 5854 5853 5852 5852 5851 5851 5849 5847 5846 5844 5843 5842 5840 5838 5836 5834 5832 5831 5829 5828 5826 5824
5874 5874 5873 5872 5871 5869 5867 5867 5865 5863 5860 5857 5857 5854 5853 5853 5854 5854 5854 5853 5853 5853 5852 5851 5851 5850 5849 5848 5846 5844 5842 5841 5839 5838 5836 5833 5832 5829 5827 5825 5824 5822 5820 5818
5872 5872 5871 5870 5869 5868 5866 5865 5863 5860 5857 5854 5852 5853 5852 5852 5853 5854 5852 5852 5852 5851 5850 5849 5848 5847 5847 5846 5844 5842 5840 5838 5836 5834 5832 5829 5827 5825 5823 5821 5819 5816 5814 5812
5870 5870 5869 5869 5867 5866 5865 5864 5861 5858 5855 5853 5851 5852 5852 5851 5852 5852 5852 5851 5851 5850 5849 5848 5846 5845 5845 5843 5841 5839 5837 5835 5832 5830 5828 5826 5823 5821 5818 5816 5813 5811 5808 5806
5868 5867 5866 5866 5866 5865 5864 5863 5860 5856 5851 5851 5852 5853 5853 5851 5851 5851 5851 5851 5850 5849 5848 5847 5845 5844 5843 5841 5839 5836 5834 5831 5829 5827 5824 5822 5819 5817 5814 5811 5808 5805 5803 5800
5866 5865 5864 5864 5864 5863 5862 5862 5860 5857 5854 5852 5851 5851 5852 5851 5852 5851 5851 5851 5850 5848 5847 5846 5844 5842 5841 5839 5836 5834 5831 5829 5826 5823 5821 5818 5815 5812 5809 5806 5803 5800 5797 5794
5865 5864 5862 5862 5862 5862 5861 5860 5860 5857 5854 5851 5850 5850 5851 5852 5852 5852 5851 5850 5849 5847 5846 5844 5842 5841 5838 5836 5834 5831 5828 5826 5823 5820 5817 5814 5811 5808 5805 5801 5798 5794 5791 5787
5863 5862 5861 5861 5860 5860 5859 5859 5859 5858 5856 5853 5851 5850 5850 5851 5852 5852 5850 5849 5847 5846 5844 5843 5841 5839 5836 5834 5831 5829 5826 5823 5820 5817 5814 5811 5808 5804 5800 5797 5793 5789 5785 5781
5861 5860 5860 5859 5858 5859 5858 5858 5857 5857 5856 5854 5851 5851 5850 5851 5851 5850 5849 5848 5846 5844 5843 5841 5839 5837 5835 5832 5829 5826 5823 5820 5817 5814 5811 5807 5804 5800 5796 5792 5788 5784 5779 5775
5857 5857 5856 5855 5855 5855 5856 5856 5856 5856 5855 5855 5853 5853 5850 5850 5850 5848 5847 5846 5845 5843 5841 5839 5837 5835 5832 5829 5827 5824 5821 5818 5814 5811 5807 5804 5800 5796 5792 5787 5783 5778 5773 5768
5854 5854 5853 5852 5852 5851 5852 5853 5854 5854 5854 5854 5853 5853 5850 5849 5848 5847 5846 5844 5843 5841 5839 5837 5835 5833 5830 5827 5824 5821 5818 5815 5811 5808 5804 5800 5796 5791 5787 5782 5777 5772 5767 5762
5850 5850 5851 5849 5848 5848 5849 5851 5852 5852 5852 5852 5850 5848 5847 5847 5846 5845 5844 5842 5841 5839 5838 5836 5833 5831 5828 5825 5822 5819 5815 5812 5808 5804 5800 5796 5791 5787 5782 5777 5771 5766 5760 5755
5847 5847 5847 5847 5847 5848 5849 5850 5851 5850 5850 5850 5849 5847 5845 5845 5844 5843 5842 5840 5839 5837 5835 5833 5831 5829 5826 5823 5820 5816 5813 5809 5805 5801 5797 5792 5787 5782 5777 5771 5766 5760 5754 5748
5843 5843 5843 5844 5844 5845 5846 5848 5848 5848 5848 5848 5848 5846 5843 5842 5842 5841 5839 5838 5836 5834 5833 5831 5828 5826 5823 5820 5817 5813 5810 5806 5802 5797 5793 5788 5783 5777 5772 5766 5760 5754 5748 5742
5840 5840 5841 5841 5841 5842 5843 5845 5845 5845 5845 5845 5844 5843 5840 5840 5839 5838 5837 5835 5833 5832 5830 5828 5825 5823 5820 5817 5814 5810 5806 5802 5798 5794 5789 5784 5778 5773 5767 5760 5754 5748 5741 5735
5836 5837 5837 5837 5838 5839 5841 5840 5841 5841 5841 5841 5840 5838 5837 5837 5836 5835 5833 5832 5830 5829 5827 5825 5822 5820 5817 5814 5810 5807 5803 5799 5794 5790 5785 5779 5774 5768 5761 5755 5748 5742 5735 5728
5831 5833 5833 5833 5834 5834 5835 5835 5836 5837 5837 5837 5836 5834 5834 5833 5832 5831 5830 5829 5827 5826 5823 5821 5819 5816 5813 5810 5807 5803 5799 5795 5790 5786 5780 5775 5769 5763 5756 5749 5743 5736 5729 5722
5826 5828 5829 5829 5830 5830 5831 5830 5831 5833 5832 5832 5831 5831 5830 5829 5828 5828 5826 5825 5823 5822 5820 5818 5815 5813 5810 5806 5803 5799 5795 5791 5786 5781 5776 5770 5764 5757 5751 5744 5737 5730 5722 5715
5820 5822 5824 5825 5825 5826 5826 5826 5827 5829 5828 5828 5827 5826 5826 5825 5825 5824 5822 5821 5819 5818 5816 5814 5811 5809 5806 5802 5799 5795 5791 5786 5781 5776 5771 5765 5758 5752 5745 5738 5731 5724 5717 5709
5817 5818 5819 5820 5820 5823 5821 5823 5822 5822 5822 5822 5822 5822 5821 5821 5820 5819 5818 5816 5815 5813 5811 5809 5807 5804 5801 5798 5794 5790 5786 5781 5776 5771 5765 5760 5753 5746 5739 5732 5725 5717 5710 5703
5813 5815 5815 5815 5815 5813 5813 5816 5816 5815 5816 5817 5818 5817 5816 5816 5815 5814 5813 5812 5810 5808 5806 5804 5802 5799 5796 5792 5789 5785 5780 5776 5771 5765 5760 5754 5747 5741 5733 5726 5719 5712 5704 5697
5806 5808 5809 5808 5807 5806 5806 5807 5810 5811 5812 5812 5812 5812 5811 5810 5810 5809 5808 5807 5805 5803 5801 5799 5796 5793 5790 5787 5783 5779 5774 5770 5765 5759 5754 5748 5741 5735 5728 5720 5713 5705 5698 5691
5803 5803 5803 5803 5802 5802 5801 5804 5805 5806 5806 5806 5806 5806 5806 5805 5804 5803 5802 5801 5799 5797 5795 5793 5790 5787 5784 5781 5777 5773 5768 5764 5758 5753 5748 5742 5735 5729 5722 5714 5707 5700 5692 5685
5797 5798 5798 5797 5798 5799 5799 5799 5799 5800 5800 5801 5801 5800 5800 5799 5798 5797 5796 5795 5793 5791 5789 5786 5784 5781 5778 5774 5770 5766 5762 5757 5752 5746 5741 5735 5729 5722 5715 5708 5701 5694 5687 5680